Vertical_Velocity
-5 -2 -3 -6 13 9 -3 -2 -1 0 2 1 -4 3 6 5 7 9 1 -2 5 2 -1 -1 -3 -2 -1 -2 -0 0 1 -2 1 1 -0 -0 -2 3 0 -0 -2 -4 -2 -2 -2 -2 -3 -1 -2
-6 -4 -3 2 9 6 -9 -3 -1 -3 1 -5 -1 1 1 -6 -4 -2 0 0 1 2 1 -2 -3 -1 1 -1 -1 1 -0 -1 -1 -0 1 3 0 -4 -3 -3 -1 -1 0 1 -1 -1 -2 -0 -0
-4 -3 13 3 2 -0 -3 0 -2 1 -1 1 1 -7 3 6 -7 7 0 2 -2 -3 5 -1 0 -1 -1 0 -1 -2 0 -1 -1 -1 1 0 -1 1 -3 -2 1 -1 -1 -1 -2 -2 -1 -1 -0
0 6 4 11 -4 -11 -1 -0 0 0 1 -3 -3 2 -2 -10 5 3 1 1 2 -1 2 -2 -1 4 1 -1 -2 -2 -1 -0 -2 -4 -3 -3 0 -3 2 -0 -0 0 -1 -2 -2 -3 -2 -1 -2
-4 4 5 5 -8 -7 -0 -2 -1 -0 -0 -3 1 -5 2 0 -4 4 -3 -2 -4 0 13 -4 -2 2 0 -1 -1 -3 -2 -2 -1 0 -1 1 -0 2 2 -1 -1 -0 0 0 -1 -2 -1 -1 -0
11 4 9 -0 -5 -5 -2 -1 2 0 -2 -2 0 1 4 -5 5 0 -2 1 5 -0 6 -8 2 -3 1 -1 -1 0 -1 -1 -2 -2 -1 -1 1 -1 -1 1 -1 -1 -2 -1 1 -2 -1 1 -1
8 6 -6 -2 -6 0 -6 -6 2 -2 0 -7 -0 2 7 5 -3 1 1 5 2 1 2 -3 -1 2 2 -6 -0 2 0 -2 -1 -1 -3 -1 0 -0 -1 -0 0 1 -1 0 -2 -1 -0 -1 -1
11 13 4 -4 -4 -17 -7 1 -2 5 -13 7 -6 -3 -5 4 -2 -0 1 1 2 3 -0 9 0 -1 3 -3 -4 -3 0 -0 -2 -2 -3 -0 0 -0 1 -1 1 0 1 -1 0 -0 -1 -1 -1
-7 15 -0 -10 5 -15 -4 5 -6 -6 5 5 3 -8 3 -4 -0 -0 0 0 2 1 0 2 3 0 2 0 -4 -0 0 1 -1 1 -1 -1 0 0 2 1 0 -2 -1 -1 -0 -0 -1 -2 -3
11 7 -9 -6 -3 -3 -4 2 1 3 1 -3 2 -6 -7 -1 -1 1 -0 -0 0 -0 0 0 1 -1 -3 1 -3 -1 1 -2 1 -0 0 0 -0 1 -1 1 -1 2 -2 -1 -2 -2 1 -1 1
-5 -2 -5 -7 -4 1 -1 3 -4 4 -2 -4 -6 -3 6 -4 0 -2 1 2 -6 1 2 -3 7 -6 2 5 -1 -2 -0 -1 3 -0 1 -1 1 1 2 -1 -3 -2 -1 -3 -2 1 -3 -1 -0
16 -1 2 -10 5 -1 -0 -0 -2 5 -19 1 5 -1 20 -4 0 0 -3 0 10 -5 2 -4 -1 3 4 1 0 -0 -5 -3 -5 1 -1 0 0 1 -1 4 1 -1 1 -0 -0 -0 -5 -2 -0
6 -4 3 -2 -3 -2 4 -4 -7 -3 -8 1 -6 -2 -8 -5 -1 1 3 2 0 0 0 0 -1 -5 -0 6 2 1 -4 -3 -1 1 -1 -0 1 -3 4 -1 0 -1 -1 -2 -1 -2 -0 -3 -1
2 1 -3 -0 -3 0 10 -8 28 -16 -2 -3 0 -3 -1 3 -2 2 2 2 -1 3 1 2 -1 -2 -1 -2 4 -2 -4 0 2 4 -3 2 5 1 -1 0 0 -2 -3 -3 -3 -1 -1 -1 -2
-3 7 0 -2 -6 -4 4 2 -3 -15 2 -2 -0 0 -2 -4 1 -5 -1 3 -1 -0 -2 1 5 1 -3 2 -1 2 -1 6 -5 -0 -2 6 3 -4 -0 -2 1 -3 -2 -0 -2 -3 -3 -1 -2
4 9 5 5 1 -11 16 -14 -7 -3 4 -2 -1 -2 -1 -5 -5 -6 0 2 -3 3 2 6 1 4 -2 0 1 -1 3 4 -2 6 -3 4 -2 -5 -0 0 -2 -2 -0 -1 -1 -2 -1 -1 -2
4 -0 2 -3 -1 0 7 -5 -3 -5 3 -1 -3 -2 -1 -1 -1 -4 -4 -3 5 -3 3 -3 4 -3 0 -0 -1 3 10 -3 -5 8 12 -2 -2 1 -0 -1 -2 -0 -2 -1 -1 -2 -2 -3 -1
-1 3 -0 -0 2 3 -1 -8 -6 -5 5 -3 -3 -4 -3 3 -9 -7 0 -2 0 12 -1 18 -5 -0 7 -2 1 1 10 0 -0 -5 -2 0 1 4 -2 -0 -0 -1 -2 -2 -3 -1 -3 -2 -3
2 3 1 -5 -4 11 -2 -1 -6 -6 3 -0 -3 -2 -4 -5 -8 5 -9 3 4 15 -5 -4 12 -3 0 4 -7 1 -3 6 2 -0 -1 -2 -1 0 -0 -1 -0 -1 -1 -2 -0 -1 -3 -2 -3
2 2 -6 -7 -2 13 -2 -12 -5 -1 -8 0 -0 -3 -4 -2 -2 -5 4 -9 -4 0 3 4 5 1 4 -6 2 4 -1 -1 3 1 1 -1 2 1 0 -0 -2 -1 -1 -2 0 -3 -2 -3 -4
-1 3 -2 5 -4 -5 10 -12 -1 -5 2 1 -2 -4 -3 -4 0 1 -1 2 -4 3 -3 11 3 5 -0 -0 3 3 2 -2 -1 1 2 -1 -1 -1 -5 2 -1 -2 -1 -2 -3 -3 -2 -2 -4
4 -1 2 1 5 1 -0 -12 -4 -3 -3 0 -1 -2 -3 -3 -2 -6 -5 6 6 -9 -0 5 6 3 5 -6 1 -5 7 -1 3 5 -1 1 6 -5 -1 3 -1 -1 -2 -2 -3 -2 -2 -2 -2
-6 -0 1 1 2 8 -7 12 -15 2 -6 -6 -4 -5 -4 -5 1 1 2 -8 -11 14 9 -5 6 3 5 -2 4 5 8 9 6 2 -2 1 4 0 1 2 -1 -2 -2 -2 -1 -2 -5 -2 -1
1 1 0 1 2 6 -9 10 -22 -1 -1 -5 -4 -5 -3 1 -3 -1 -2 3 -1 -5 23 1 1 2 -1 -1 3 0 3 -9 -3 -1 -1 -1 1 -2 0 -1 -1 -1 -0 -0 -2 -3 -3 -4 -2
6 2 1 6 7 -8 -0 7 -24 -7 -4 4 -1 -5 -1 7 -1 2 3 0 -5 0 8 1 1 6 -0 -2 3 4 6 2 8 -1 -3 0 -5 -2 -0 -1 -3 -1 -0 -2 -2 -2 -3 -3 -2
-5 -4 -1 -0 2 -4 -2 -4 -33 -4 -1 -1 0 -2 -5 -1 4 3 -0 -0 6 -1 5 -4 -1 8 -2 -1 0 13 -2 4 5 6 -2 3 2 2 0 0 -1 1 -1 -2 -1 -1 -3 -3 -2
-0 4 -13 7 -0 12 -5 -17 -8 -2 -6 -2 -2 -1 -1 -3 -8 -3 0 1 6 -1 5 -2 1 8 6 2 5 2 -1 -3 -0 0 3 4 1 1 0 -0 -0 0 -1 -1 -1 -2 -4 -3 -2
0 0 2 4 1 -1 -7 -5 -13 -5 -7 -2 -0 -1 2 2 -1 -4 -3 -1 3 4 -1 3 10 3 6 7 0 1 2 5 5 3 1 -3 -2 -0 -2 -1 0 -1 -0 -1 -2 -2 -3 -2 -1
8 4 2 7 5 3 0 -20 -2 2 2 0 -0 -2 -1 -4 -6 -2 -2 -5 2 5 -0 4 10 2 3 -0 -0 1 3 -1 4 2 3 0 -0 2 1 0 -0 -1 -1 -1 -2 -2 -1 -1 -0
2 -6 -1 7 -5 -2 5 -37 -1 -2 -2 1 -2 -3 -3 5 -1 1 -4 1 4 4 1 6 10 3 1 -2 2 5 6 4 0 1 1 0 0 0 -1 -1 -1 -1 -1 -2 -3 -1 -1 -0 0
Height
1507 1509 1509 1509 1508 1495 1489 1481 1478 1481 1482 1481 1484 1485 1478 1478 1474 1485 1487 1488 1491 1492 1492 1494 1497 1499 1501 1503 1504 1505 1505 1506 1507 1507 1508 1510 1512 1513 1514 1514 1514 1514 1514 1514 1513 1514 1515 1516 1517
1506 1509 1510 1505 1505 1496 1483 1472 1482 1479 1483 1486 1485 1484 1483 1479 1481 1486 1488 1487 1492 1494 1494 1495 1497 1499 1501 1503 1504 1505 1506 1506 1507 1509 1509 1511 1512 1514 1516 1516 1515 1515 1515 1514 1515 1515 1516 1517 1517
1505 1508 1508 1500 1496 1493 1482 1473 1478 1481 1486 1484 1482 1483 1480 1479 1484 1487 1487 1487 1491 1495 1497 1496 1497 1500 1502 1503 1504 1505 1506 1507 1508 1510 1511 1512 1514 1515 1516 1517 1517 1516 1516 1516 1517 1517 1517 1518 1518
1506 1507 1505 1499 1490 1479 1476 1473 1480 1484 1484 1485 1485 1481 1482 1484 1485 1487 1487 1488 1492 1494 1498 1497 1499 1501 1503 1503 1505 1506 1507 1508 1509 1511 1512 1513 1514 1515 1516 1517 1518 1518 1518 1518 1518 1519 1519 1518 1519
1504 1500 1495 1491 1487 1478 1473 1480 1483 1484 1483 1484 1484 1480 1480 1484 1485 1486 1486 1488 1492 1495 1496 1497 1500 1502 1504 1506 1506 1506 1507 1509 1510 1511 1513 1514 1514 1515 1516 1517 1518 1519 1519 1519 1519 1519 1520 1520 1520
1499 1495 1492 1487 1480 1475 1474 1477 1482 1483 1482 1482 1485 1483 1481 1483 1485 1485 1487 1490 1492 1494 1497 1496 1499 1502 1505 1507 1508 1507 1508 1509 1510 1512 1513 1513 1514 1515 1517 1518 1519 1519 1520 1520 1519 1520 1521 1520 1521
1494 1489 1485 1480 1477 1471 1470 1478 1481 1481 1480 1480 1482 1482 1479 1482 1484 1485 1487 1489 1491 1494 1496 1497 1499 1501 1503 1506 1508 1508 1508 1509 1510 1512 1513 1514 1515 1515 1516 1518 1518 1519 1519 1520 1520 1520 1521 1521 1520
1494 1488 1482 1479 1478 1473 1470 1474 1481 1480 1479 1481 1482 1481 1479 1482 1483 1486 1487 1489 1491 1493 1495 1498 1499 1501 1502 1503 1507 1508 1507 1509 1510 1511 1513 1514 1515 1516 1517 1518 1518 1519 1519 1520 1521 1521 1521 1520 1520
1495 1488 1480 1477 1474 1472 1472 1472 1478 1480 1480 1479 1481 1482 1482 1482 1483 1486 1487 1489 1490 1493 1495 1497 1500 1501 1501 1502 1505 1507 1506 1508 1510 1511 1512 1514 1516 1516 1517 1516 1517 1518 1520 1520 1521 1521 1520 1519 1518
1490 1484 1476 1471 1468 1469 1473 1475 1475 1479 1479 1478 1479 1480 1482 1483 1483 1484 1486 1487 1489 1491 1493 1495 1498 1500 1500 1501 1502 1505 1505 1507 1509 1510 1512 1513 1515 1516 1516 1517 1517 1518 1519 1520 1520 1520 1520 1519 1519
1485 1480 1473 1471 1476 1475 1476 1474 1476 1477 1477 1475 1476 1476 1479 1482 1482 1483 1484 1485 1487 1489 1491 1493 1497 1497 1498 1499 1499 1503 1506 1506 1509 1510 1511 1512 1512 1514 1516 1516 1517 1517 1518 1519 1520 1519 1518 1518 1516
1481 1478 1477 1474 1475 1479 1479 1477 1474 1475 1476 1476 1475 1476 1476 1479 1480 1481 1482 1483 1485 1487 1489 1489 1493 1495 1497 1497 1497 1500 1503 1506 1508 1509 1510 1511 1512 1514 1516 1518 1517 1517 1518 1518 1519 1518 1517 1517 1515
1477 1479 1475 1477 1478 1478 1480 1476 1474 1473 1475 1474 1474 1475 1476 1478 1478 1478 1479 1481 1482 1484 1486 1487 1489 1490 1494 1497 1496 1497 1501 1504 1507 1508 1508 1510 1511 1514 1515 1515 1515 1516 1517 1518 1518 1517 1515 1514 1512
1475 1478 1476 1474 1475 1477 1477 1472 1473 1470 1470 1471 1471 1471 1473 1474 1474 1475 1476 1477 1479 1481 1482 1484 1485 1485 1488 1491 1494 1496 1499 1502 1504 1506 1506 1510 1512 1513 1512 1513 1514 1514 1516 1516 1516 1515 1513 1511 1509
1479 1479 1473 1470 1471 1473 1473 1468 1464 1463 1466 1464 1464 1465 1467 1467 1469 1470 1472 1473 1475 1477 1479 1481 1483 1484 1483 1487 1490 1493 1497 1500 1500 1503 1506 1508 1508 1509 1510 1512 1513 1513 1515 1514 1513 1513 1511 1509 1506
1478 1475 1470 1456 1464 1466 1471 1463 1453 1456 1456 1456 1456 1458 1459 1460 1462 1464 1466 1468 1471 1472 1474 1477 1479 1481 1481 1482 1485 1489 1494 1496 1498 1501 1503 1504 1505 1507 1509 1510 1511 1512 1512 1512 1511 1510 1509 1506 1504
1471 1465 1460 1459 1459 1463 1464 1453 1447 1452 1452 1450 1452 1452 1452 1453 1455 1457 1460 1463 1465 1468 1470 1471 1474 1476 1478 1478 1482 1487 1489 1492 1497 1499 1500 1501 1503 1505 1507 1508 1510 1511 1511 1511 1510 1508 1506 1504 1502
1460 1466 1461 1460 1456 1461 1459 1452 1448 1449 1449 1448 1448 1448 1447 1447 1449 1451 1452 1456 1459 1461 1465 1466 1467 1470 1474 1473 1478 1483 1487 1489 1490 1493 1496 1499 1501 1503 1504 1506 1507 1509 1510 1510 1508 1507 1504 1503 1501
1463 1467 1462 1455 1455 1460 1457 1448 1445 1443 1442 1441 1441 1441 1442 1442 1443 1444 1447 1449 1451 1454 1457 1460 1461 1462 1466 1470 1470 1476 1479 1483 1485 1488 1491 1496 1499 1501 1502 1504 1506 1508 1508 1508 1507 1505 1503 1501 1500
1468 1468 1464 1459 1457 1460 1455 1439 1439 1435 1429 1431 1433 1433 1434 1434 1435 1437 1439 1442 1444 1447 1450 1452 1454 1456 1459 1460 1464 1469 1472 1477 1481 1484 1488 1492 1496 1498 1500 1503 1505 1506 1507 1507 1506 1504 1502 1500 1499
1466 1466 1464 1463 1460 1460 1457 1433 1419 1416 1419 1422 1423 1424 1425 1425 1425 1427 1430 1432 1436 1439 1442 1445 1447 1449 1450 1453 1456 1462 1467 1471 1474 1479 1484 1488 1492 1496 1499 1501 1503 1504 1505 1505 1505 1503 1502 1500 1498
1466 1459 1462 1467 1471 1463 1458 1440 1423 1414 1412 1414 1415 1416 1415 1417 1419 1420 1421 1423 1426 1430 1434 1438 1440 1442 1443 1445 1449 1452 1455 1460 1467 1472 1479 1484 1488 1492 1495 1498 1501 1502 1503 1503 1503 1502 1501 1500 1498
1466 1469 1470 1471 1472 1471 1456 1463 1417 1411 1411 1406 1405 1409 1409 1410 1411 1411 1412 1414 1417 1422 1425 1429 1434 1435 1438 1440 1444 1449 1453 1459 1461 1467 1474 1480 1485 1488 1493 1496 1499 1500 1500 1501 1500 1499 1499 1499 1498
1469 1470 1474 1475 1481 1473 1447 1444 1415 1408 1401 1404 1401 1404 1405 1405 1406 1405 1406 1407 1409 1413 1418 1420 1427 1428 1431 1435 1440 1443 1450 1451 1457 1463 1468 1475 1480 1484 1489 1494 1497 1498 1498 1498 1497 1497 1496 1497 1496
1470 1476 1467 1469 1474 1449 1421 1429 1411 1396 1399 1401 1403 1402 1402 1402 1402 1401 1401 1401 1403 1405 1411 1413 1418 1423 1425 1429 1434 1441 1445 1448 1454 1459 1464 1469 1476 1482 1486 1490 1494 1495 1496 1496 1495 1494 1494 1494 1493
1468 1468 1459 1449 1434 1424 1417 1419 1402 1396 1395 1399 1397 1398 1397 1399 1399 1398 1397 1396 1396 1399 1402 1407 1411 1417 1419 1424 1430 1439 1439 1445 1451 1457 1463 1469 1474 1479 1484 1488 1490 1492 1493 1493 1493 1491 1491 1491 1490
1461 1467 1460 1462 1452 1452 1422 1406 1399 1392 1392 1388 1391 1395 1393 1393 1396 1398 1396 1391 1390 1392 1396 1401 1406 1411 1414 1418 1428 1432 1435 1442 1448 1455 1461 1467 1472 1477 1482 1486 1488 1489 1490 1490 1490 1489 1488 1488 1487
1457 1458 1468 1471 1457 1433 1405 1400 1389 1388 1385 1383 1385 1389 1389 1388 1393 1394 1393 1387 1385 1386 1390 1396 1403 1408 1412 1416 1421 1427 1434 1441 1448 1453 1458 1465 1471 1475 1480 1483 1485 1487 1488 1487 1487 1486 1485 1485 1483
1457 1459 1465 1455 1448 1435 1421 1394 1384 1387 1387 1387 1389 1390 1392 1391 1392 1391 1388 1383 1381 1382 1386 1393 1399 1404 1410 1411 1420 1427 1433 1439 1446 1451 1457 1462 1469 1474 1477 1480 1482 1484 1484 1484 1484 1484 1483 1481 1479
1441 1446 1450 1452 1435 1436 1425 1392 1388 1386 1387 1387 1388 1389 1387 1387 1387 1386 1382 1379 1379 1380 1384 1391 1396 1402 1406 1409 1418 1425 1431 1438 1444 1450 1456 1461 1467 1471 1475 1477 1479 1480 1481 1481 1481 1481 1480 1477 1475